This is the latest recevied weather packets stored in our database for station/object KE1THD. If no packets are shown the sender has not sent any weather packets the latest 10 day(s).
| Time | Temp. | Humidity | Pressure | Rain* | Wind** | Luminosity | Snow |
|---|---|---|---|---|---|---|---|
| 1777923848 | 27.78° C | 33% | 999.5 hPa | 0 mm | - | 511 W/m² | - |
| 1777923544 | 28.33° C | 32% | 999.4 hPa | 0 mm | - | 354 W/m² | - |
| 1777923242 | 28.89° C | 33% | 999.5 hPa | 0 mm | - | 825 W/m² | - |
| 1777922941 | 27.78° C | 32% | 999.5 hPa | 0 mm | - | 696 W/m² | - |
| 1777922638 | 27.78° C | 32% | 999.7 hPa | 0 mm | - | 836 W/m² | - |
| 1777922336 | 27.22° C | 35% | 999.5 hPa | 0 mm | - | 254 W/m² | - |
| 1777922034 | 27.78° C | 34% | 999.8 hPa | 0 mm | - | 271 W/m² | - |
| 1777921730 | 28.89° C | 34% | 999.6 hPa | 0 mm | - | 769 W/m² | - |
| 1777921426 | 27.78° C | 33% | 999.5 hPa | 0 mm | - | 769 W/m² | - |
| 1777921123 | 27.22° C | 36% | 999.5 hPa | 0 mm | - | 743 W/m² | - |
| 1777920820 | 27.78° C | 36% | 999.7 hPa | 0 mm | - | 723 W/m² | - |
| 1777920516 | 28.33° C | 33% | 999.9 hPa | 0 mm | - | 714 W/m² | - |
| 1777920212 | 27.78° C | 35% | 999.8 hPa | 0 mm | - | 727 W/m² | - |
| 1777919907 | 27.22° C | 35% | 999.5 hPa | 0 mm | - | 727 W/m² | - |
| 1777919605 | 27.22° C | 38% | 999.7 hPa | 0 mm | - | 720 W/m² | - |
| 1777919303 | 27.78° C | 36% | 999.6 hPa | 0 mm | - | 691 W/m² | - |
| 1777919000 | 27.78° C | 35% | 999.8 hPa | 0 mm | - | 685 W/m² | - |
| 1777918696 | 27.78° C | 35% | 999.9 hPa | 0 mm | - | 721 W/m² | - |
| 1777918394 | 27.22° C | 35% | 999.7 hPa | 0 mm | - | 722 W/m² | - |
| 1777918093 | 27.78° C | 34% | 1000 hPa | 0 mm | - | 729 W/m² | - |
| 1777917791 | 27.78° C | 36% | 999.9 hPa | 0 mm | - | 730 W/m² | - |
| 1777917489 | 27.22° C | 33% | 999.6 hPa | 0 mm | - | 723 W/m² | - |
| 1777917185 | 27.22° C | 38% | 999.8 hPa | 0 mm | - | 715 W/m² | - |
| 1777916884 | 27.22° C | 38% | 999.5 hPa | 0 mm | - | 718 W/m² | - |
| 1777916581 | 27.78° C | 36% | 999.7 hPa | 0 mm | - | 688 W/m² | - |
* Rain latest hour (hover to see other rain measurements)
** Current wind speed in m/s (hover to see current wind gust speed)